When you browse on this site, cookies collect data to enhance your experience and personalize the content and advertising you see.
Visit our Privacy Policy to learn more. By continuing to use the site, you agree to this use of cookies and data.
  • In Österreich
  • Länderverzeichnis
  • Für 7 Tage
  • Wassertemperatur
  • Satellitenkarten
  • Wetterkarte
  • News
  • Widgets
  • user-avatar
    Anmelden

    Stündliche Wetter Boma

    Heute, 20 November, Dienstag

    Zeit Temperatur Niederschläge Wind Luftdruck Luftfeuchtigkeit
    00:00 +21°C° 0 mm 0 m/S 699 mmHg 75%
    01:00 +21°C° 0 mm 0 m/S 699 mmHg 78%
    02:00 +21°C° 0 mm 0 m/S 699 mmHg 79%
    03:00 +20°C° 0 mm 0 m/S 699 mmHg 79%
    04:00 +20°C° 0 mm 0 m/S 699 mmHg 80%
    05:00 +20°C° 0 mm 0 m/S 699 mmHg 78%
    06:00 +21°C° 0 mm 0 m/S 700 mmHg 77%
    07:00 +21°C° 0 mm 0 m/S 700 mmHg 68%
    08:00 +25°C° 0 mm 0 m/S 701 mmHg 57%
    09:00 +28°C° 0 mm 0 m/S 701 mmHg 47%
    10:00 +33°C° 0 mm 1 m/S 702 mmHg 37%
    11:00 +34°C° 0 mm 1 m/S 701 mmHg 32%
    12:00 +35°C° 0 mm 1 m/S 701 mmHg 28%
    13:00 +36°C° 0 mm 1 m/S 701 mmHg 24%
    14:00 +36°C° 0 mm 1 m/S 700 mmHg 25%
    15:00 +35°C° 0 mm 1 m/S 700 mmHg 25%
    16:00 +35°C° 0 mm 1 m/S 699 mmHg 26%
    17:00 +32°C° 0 mm 1 m/S 699 mmHg 32%
    18:00 +28°C° 0 mm 0 m/S 699 mmHg 39%
    19:00 +25°C° 0 mm 0 m/S 699 mmHg 45%
    20:00 +24°C° 0 mm 0 m/S 699 mmHg 47%
    21:00 +23°C° 0 mm 0 m/S 700 mmHg 50%
    22:00 +22°C° 0 mm 0 m/S 700 mmHg 52%
    23:00 +22°C° 0 mm 0 m/S 700 mmHg 54%

    Morgen, 21 November, Mittwoch

    Zeit Temperatur Niederschläge Wind Luftdruck Luftfeuchtigkeit
    00:00 +21°C° 0 mm 0 m/S 700 mmHg 55%
    01:00 +21°C° 0 mm 0 m/S 700 mmHg 57%
    02:00 +20°C° 0 mm 0 m/S 699 mmHg 60%
    03:00 +20°C° 0 mm 0 m/S 699 mmHg 63%
    04:00 +19°C° 0 mm 0 m/S 699 mmHg 66%
    05:00 +19°C° 0 mm 0 m/S 699 mmHg 67%
    06:00 +20°C° 0 mm 0 m/S 700 mmHg 68%
    07:00 +20°C° 0 mm 0 m/S 700 mmHg 69%
    08:00 +24°C° 0 mm 0 m/S 701 mmHg 57%
    09:00 +27°C° 0 mm 0 m/S 701 mmHg 46%
    10:00 +30°C° 0 mm 0 m/S 702 mmHg 35%
    11:00 +34°C° 0 mm 1 m/S 701 mmHg 30%
    12:00 +35°C° 0 mm 1 m/S 701 mmHg 26%
    13:00 +37°C° 0 mm 1 m/S 700 mmHg 21%
    14:00 +36°C° 0 mm 1 m/S 699 mmHg 21%
    15:00 +36°C° 0 mm 1 m/S 699 mmHg 22%
    16:00 +36°C° 0 mm 1 m/S 698 mmHg 22%
    17:00 +33°C° 0 mm 1 m/S 698 mmHg 29%
    18:00 +28°C° 0 mm 0 m/S 698 mmHg 35%
    19:00 +25°C° 0 mm 0 m/S 698 mmHg 42%
    20:00 +24°C° 0 mm 0 m/S 699 mmHg 45%
    21:00 +23°C° 0 mm 0 m/S 699 mmHg 48%
    22:00 +24°C° 0 mm 1 m/S 700 mmHg 52%
    23:00 +24°C° 0 mm 1 m/S 700 mmHg 56%

    übermorgen, 22 November, Donnerstag

    Zeit Temperatur Niederschläge Wind Luftdruck Luftfeuchtigkeit
    00:00 +23°C° 0 mm 1 m/S 700 mmHg 60%
    01:00 +23°C° 0 mm 1 m/S 700 mmHg 64%
    02:00 +23°C° 0 mm 1 m/S 699 mmHg 71%
    03:00 +22°C° 0 mm 1 m/S 699 mmHg 78%
    04:00 +22°C° 0 mm 1 m/S 699 mmHg 85%
    05:00 +22°C° 0 mm 1 m/S 699 mmHg 86%
    06:00 +23°C° 0 mm 1 m/S 700 mmHg 86%
    07:00 +23°C° 0 mm 1 m/S 700 mmHg 87%
    08:00 +26°C° 0 mm 1 m/S 701 mmHg 76%
    09:00 +28°C° 0 mm 1 m/S 701 mmHg 65%
    10:00 +31°C° 0 mm 1 m/S 702 mmHg 54%
    11:00 +32°C° 0 mm 1 m/S 701 mmHg 45%
    12:00 +34°C° 0 mm 1 m/S 700 mmHg 36%
    13:00 +36°C° 0 mm 1 m/S 700 mmHg 27%
    14:00 +35°C° 0 mm 1 m/S 699 mmHg 27%
    15:00 +35°C° 0 mm 1 m/S 698 mmHg 27%
    16:00 +35°C° 0 mm 1 m/S 698 mmHg 27%
    17:00 +32°C° 0 mm 1 m/S 698 mmHg 35%
    18:00 +29°C° 0 mm 1 m/S 698 mmHg 44%
    19:00 +27°C° 0 mm 1 m/S 698 mmHg 53%
    20:00 +26°C° 0 mm 1 m/S 699 mmHg 60%
    21:00 +25°C° 0 mm 1 m/S 699 mmHg 67%
    22:00 +24°C° 0 mm 1 m/S 700 mmHg 74%
    23:00 +24°C° 0 mm 1 m/S 700 mmHg 78%

    23 November, Freitag

    Zeit Temperatur Niederschläge Wind Luftdruck Luftfeuchtigkeit
    00:00 +23°C° 0 mm 1 m/S 700 mmHg 82%
    01:00 +23°C° 0 mm 1 m/S 699 mmHg 86%
    02:00 +23°C° 0 mm 1 m/S 699 mmHg 89%
    03:00 +22°C° 0 mm 1 m/S 699 mmHg 92%
    04:00 +22°C° 0 mm 1 m/S 699 mmHg 95%
    05:00 +23°C° 0 mm 1 m/S 700 mmHg 92%
    06:00 +23°C° 0 mm 1 m/S 700 mmHg 89%
    07:00 +24°C° 0 mm 1 m/S 701 mmHg 87%
    08:00 +26°C° 0 mm 1 m/S 701 mmHg 77%
    09:00 +28°C° 0 mm 1 m/S 702 mmHg 67%
    10:00 +28°C° 0 mm 0 m/S 702 mmHg 57%
    11:00 +30°C° 0 mm 0 m/S 701 mmHg 49%
    12:00 +34°C° 0 mm 1 m/S 701 mmHg 40%
    13:00 +36°C° 0 mm 1 m/S 700 mmHg 31%
    14:00 +35°C° 0 mm 1 m/S 699 mmHg 30%
    15:00 +35°C° 0 mm 1 m/S 699 mmHg 29%
    16:00 +34°C° 0 mm 1 m/S 698 mmHg 28%
    17:00 +32°C° 0 mm 1 m/S 698 mmHg 35%
    18:00 +29°C° 0 mm 1 m/S 698 mmHg 43%
    19:00 +26°C° 0 mm 1 m/S 698 mmHg 51%
    20:00 +25°C° 0 mm 1 m/S 699 mmHg 54%
    21:00 +25°C° 0 mm 1 m/S 699 mmHg 58%
    22:00 +24°C° 0 mm 1 m/S 700 mmHg 61%
    23:00 +21°C° 0 mm 0 m/S 699 mmHg 64%

    24 November, Samstag

    Zeit Temperatur Niederschläge Wind Luftdruck Luftfeuchtigkeit
    00:00 +21°C° 0 mm 0 m/S 699 mmHg 66%
    01:00 +20°C° 0 mm 0 m/S 699 mmHg 68%
    02:00 +20°C° 0 mm 0 m/S 699 mmHg 70%
    03:00 +20°C° 0 mm 0 m/S 698 mmHg 73%
    04:00 +19°C° 0 mm 0 m/S 698 mmHg 75%
    05:00 +19°C° 0 mm 0 m/S 699 mmHg 75%
    06:00 +20°C° 0 mm 0 m/S 699 mmHg 75%
    07:00 +20°C° 0 mm 0 m/S 700 mmHg 76%
    08:00 +24°C° 0 mm 0 m/S 701 mmHg 64%
    09:00 +27°C° 0 mm 0 m/S 701 mmHg 53%
    10:00 +31°C° 0 mm 0 m/S 702 mmHg 41%
    11:00 +32°C° 0 mm 0 m/S 701 mmHg 34%
    12:00 +36°C° 0 mm 1 m/S 700 mmHg 28%
    13:00 +37°C° 0 mm 1 m/S 699 mmHg 21%
    14:00 +37°C° 0 mm 1 m/S 699 mmHg 21%
    15:00 +36°C° 0 mm 1 m/S 698 mmHg 21%
    16:00 +36°C° 0 mm 1 m/S 698 mmHg 21%
    17:00 +33°C° 0 mm 1 m/S 698 mmHg 27%
    18:00 +28°C° 0 mm 0 m/S 698 mmHg 32%
    19:00 +25°C° 0 mm 0 m/S 698 mmHg 38%
    20:00 +24°C° 0 mm 0 m/S 699 mmHg 40%
    21:00 +25°C° 0 mm 1 m/S 699 mmHg 42%
    22:00 +25°C° 0 mm 1 m/S 700 mmHg 44%
    23:00 +22°C° 0 mm 0 m/S 699 mmHg 46%

    25 November, Sonntag

    Zeit Temperatur Niederschläge Wind Luftdruck Luftfeuchtigkeit
    00:00 +22°C° 0 mm 0 m/S 699 mmHg 48%
    01:00 +21°C° 0 mm 0 m/S 699 mmHg 49%
    02:00 +21°C° 0 mm 0 m/S 699 mmHg 53%
    03:00 +20°C° 0 mm 0 m/S 699 mmHg 57%
    04:00 +22°C° 0 mm 1 m/S 699 mmHg 62%
    05:00 +22°C° 0 mm 1 m/S 699 mmHg 66%
    06:00 +23°C° 0 mm 1 m/S 699 mmHg 71%
    07:00 +23°C° 0 mm 1 m/S 700 mmHg 75%
    08:00 +26°C° 0 mm 1 m/S 700 mmHg 66%
    09:00 +29°C° 0 mm 1 m/S 701 mmHg 57%
    10:00 +32°C° 0 mm 1 m/S 701 mmHg 48%
    11:00 +34°C° 0 mm 1 m/S 700 mmHg 43%
    12:00 +34°C° 0 mm 0 m/S 700 mmHg 37%
    13:00 +36°C° 0 mm 0 m/S 699 mmHg 32%
    14:00 +35°C° 0 mm 0 m/S 698 mmHg 33%
    15:00 +34°C° 0 mm 0 m/S 698 mmHg 34%
    16:00 +35°C° 0 mm 1 m/S 697 mmHg 35%
    17:00 +32°C° 0 mm 1 m/S 697 mmHg 42%
    18:00 +30°C° 0 mm 1 m/S 698 mmHg 49%
    19:00 +28°C° 0 mm 1 m/S 698 mmHg 56%
    20:00 +25°C° 0 mm 0 m/S 698 mmHg 59%
    21:00 +25°C° 0 mm 0 m/S 699 mmHg 62%
    22:00 +24°C° 0 mm 0 m/S 699 mmHg 66%
    23:00 +24°C° 0 mm 0 m/S 699 mmHg 68%
    Mehr zeigen